2024-169B

Last updated on Mon Oct 21 2024 00:02:04 GMT+0000 (Coordinated Universal Time)

1 61190U 24169B 24294.58782169 .00023863 00000+0 14905-2 0 9998 2 61190 97.5868 19.6515 0009882 165.9009 194.2498 15.09425289 4585
UTC large
Height (km)
Speed (km/s)
/
Latitude / Longitude
Inclination (degrees)
Orbital Period (minutes)
Azimuth
Elevation
Range (km)
Doppler Factor

Next 0 passes for location: London (51.5072 / 0.1276)

Sorry there are no passes over London.